Location: RapidEye Observatory
(35.3653°N, 79.2300°W)
Time: 02:56:08
(UTC-04:00)

OTV 5 (USA 277) - Visible Passes

Search period start: 22 July 2018 00:00
Search period end: 01 August 2018 00:00
Orbit: 312 x 321 km, 54.5° (Epoch: 05 July)

Date Brightness Start Highest point End Pass type
(mag) Time Alt. Az. Time Alt. Az. Time Alt. Az.
26 Jul ? 05:24:03 10° S 05:26:04 19° SE 05:28:05 10° ENE visible
27 Jul ? 05:37:54 11° SW 05:40:23 70° SE 05:43:04 10° NE visible
28 Jul ? 04:21:14 10° ESE 04:21:14 10° ESE 04:21:32 10° ESE visible
29 Jul ? 04:35:23 32° ESE 04:35:23 32° ESE 04:37:33 10° ENE visible
30 Jul ? 04:49:27 58° NW 04:49:27 58° NW 04:52:07 10° NE visible
31 Jul ? 05:03:28 18° NW 05:03:59 19° NW 05:06:04 10° NNE visible
